TimeEST,TemperatureF,Dew PointF,Humidity,Sea Level PressureIn,VisibilityMPH,Wind Direction,Wind SpeedMPH,Gust SpeedMPH,PrecipitationIn,Events,Conditions,WindDirDegrees,DateUTC
12:10 AM,39.2,35.6,87,29.65,9.0,West,9.2,-,N/A,,Mostly Cloudy,260,2005-12-31 05:10:00
12:53 AM,39.0,36.0,89,29.67,7.0,SW,4.6,-,N/A,,Mostly Cloudy,230,2005-12-31 05:53:00
1:53 AM,39.0,36.0,89,29.68,6.0,SW,5.8,-,N/A,,Overcast,230,2005-12-31 06:53:00
2:53 AM,39.9,36.0,86,29.67,6.0,SSW,5.8,-,N/A,,Overcast,210,2005-12-31 07:53:00
3:53 AM,39.9,35.1,83,29.69,7.0,SW,8.1,-,N/A,,Overcast,230,2005-12-31 08:53:00
4:53 AM,39.9,35.1,83,29.68,8.0,SW,11.5,-,N/A,,Overcast,230,2005-12-31 09:53:00
5:30 AM,39.2,35.6,87,29.68,8.0,WSW,12.7,-,N/A,,Overcast,240,2005-12-31 10:30:00
5:40 AM,39.2,35.6,87,29.68,8.0,WSW,15.0,19.6,N/A,,Overcast,240,2005-12-31 10:40:00
5:53 AM,39.9,34.0,79,29.70,9.0,WSW,11.5,-,N/A,,Overcast,240,2005-12-31 10:53:00
6:53 AM,39.0,34.0,82,29.73,10.0,WSW,12.7,-,N/A,,Overcast,250,2005-12-31 11:53:00
7:53 AM,39.0,32.0,76,29.74,10.0,WSW,10.4,-,N/A,,Overcast,240,2005-12-31 12:53:00
8:53 AM,37.9,30.9,76,29.76,10.0,WSW,11.5,-,N/A,,Mostly Cloudy,250,2005-12-31 13:53:00
9:53 AM,39.0,30.9,73,29.79,10.0,WSW,12.7,-,N/A,,Overcast,250,2005-12-31 14:53:00
10:23 AM,39.2,32.0,75,29.79,10.0,WSW,10.4,-,N/A,,Overcast,250,2005-12-31 15:23:00
10:53 AM,39.0,30.0,70,29.81,10.0,WSW,15.0,20.7,N/A,,Overcast,250,2005-12-31 15:53:00
11:53 AM,37.9,30.0,73,29.82,10.0,West,15.0,23.0,N/A,,Overcast,260,2005-12-31 16:53:00
12:53 PM,37.9,30.0,73,29.82,10.0,West,12.7,-,N/A,,Overcast,260,2005-12-31 17:53:00
1:53 PM,37.9,30.0,73,29.84,10.0,WSW,15.0,-,N/A,,Overcast,250,2005-12-31 18:53:00
2:53 PM,37.9,30.0,73,29.85,10.0,West,6.9,-,N/A,,Overcast,270,2005-12-31 19:53:00
3:53 PM,37.9,30.0,73,29.88,10.0,West,8.1,-,N/A,,Overcast,260,2005-12-31 20:53:00
4:53 PM,37.0,30.0,76,29.88,10.0,West,4.6,-,N/A,,Overcast,270,2005-12-31 21:53:00
5:53 PM,37.0,30.0,76,29.88,10.0,WSW,5.8,-,N/A,,Overcast,240,2005-12-31 22:53:00
6:53 PM,37.0,30.0,76,29.90,10.0,WSW,3.5,-,N/A,,Overcast,240,2005-12-31 23:53:00
7:53 PM,36.0,28.0,73,29.92,10.0,West,3.5,-,N/A,,Mostly Cloudy,280,2006-01-01 00:53:00
8:08 PM,35.6,28.4,75,29.90,10.0,Calm,Calm,-,N/A,,Partly Cloudy,0,2006-01-01 01:08:00
8:53 PM,30.9,28.0,89,29.93,9.0,Calm,Calm,-,N/A,,Clear,0,2006-01-01 01:53:00
9:53 PM,30.0,27.0,88,29.93,7.0,Calm,Calm,-,N/A,,Clear,0,2006-01-01 02:53:00
10:53 PM,28.0,25.0,88,29.95,6.0,Calm,Calm,-,N/A,,Clear,0,2006-01-01 03:53:00
11:53 PM,27.0,25.0,92,29.93,5.0,SE,4.6,-,N/A,,Clear,140,2006-01-01 04:53:00